| time (UTC) | temp F | wind direction | speed MPH | gust MPH | rain 1hr in | rain 24hr in | rain mn in | humidity % | barometer mb |
| 20260510010021 | 59 | 105 | 0.0 | 3.0 | 0.00 | 0.00 | 0.00 | 74 | 1009.4 |
| 20260510005511 | 59 | 111 | 1.0 | 3.0 | 0.00 | 0.00 | 0.00 | 74 | 1009.4 |
| 20260510005011 | 59 | 90 | 0.0 | 1.0 | 0.00 | 0.00 | 0.00 | 75 | 1009.3 |
| 20260510004524 | 60 | 147 | 0.0 | 1.0 | 0.00 | 0.00 | 0.00 | 73 | 1009.2 |
| 20260510003507 | 61 | 15 | 1.0 | 2.0 | 0.00 | 0.00 | 0.00 | 71 | 1008.9 |
| 20260510002509 | 63 | 108 | 0.0 | 2.0 | 0.00 | 0.00 | 0.00 | 68 | 1008.6 |
| 20260510002014 | 63 | 79 | 0.0 | 2.0 | 0.00 | 0.00 | 0.00 | 67 | 1008.5 |
| 20260510001512 | 65 | 89 | 0.0 | 1.0 | 0.00 | 0.00 | 0.00 | 67 | 1008.5 |
| 20260510001012 | 65 | 89 | 0.0 | 1.0 | 0.00 | 0.00 | 0.00 | 64 | 1008.3 |
| 20260510000507 | 66 | 120 | 0.0 | 1.0 | 0.00 | 0.00 | 0.00 | 63 | 1008.3 |
| 20260510000020 | 67 | 120 | 0.0 | 1.0 | 0.00 | 0.00 | 0.00 | 60 | 1008.3 |
| 20260509235507 | 69 | 117 | 0.0 | 1.0 | 0.00 | 0.00 | 0.00 | 57 | 1008.3 |
| 20260509235013 | 70 | 117 | 0.0 | 1.0 | 0.00 | 0.00 | 0.00 | 54 | 1008.3 |
| 20260509234534 | 71 | 219 | 0.0 | 3.0 | 0.00 | 0.00 | 0.00 | 52 | 1008.3 |
| 20260509234011 | 71 | 219 | 0.0 | 3.0 | 0.00 | 0.00 | 0.00 | 49 | 1008.3 |
| 20260509233510 | 71 | 260 | 0.0 | 3.0 | 0.00 | 0.00 | 0.00 | 49 | 1008.3 |
| 20260509233025 | 70 | 264 | 1.0 | 4.0 | 0.00 | 0.00 | 0.00 | 49 | 1008.3 |
| 20260509231010 | 71 | 260 | 0.0 | 5.0 | 0.00 | 0.00 | 0.00 | 48 | 1008.2 |
| 20260509230513 | 72 | 262 | 2.0 | 6.0 | 0.00 | 0.00 | 0.00 | 45 | 1008.2 |
| 20260509230014 | 72 | 242 | 2.0 | 6.0 | 0.00 | 0.00 | 0.00 | 46 | 1008.2 |
| 20260509225507 | 72 | 255 | 1.0 | 10.0 | 0.00 | 0.00 | 0.00 | 45 | 1008.1 |
| 20260509225006 | 72 | 262 | 1.0 | 11.0 | 0.00 | 0.00 | 0.00 | 46 | 1008.1 |
| 20260509224505 | 72 | 276 | 2.0 | 11.0 | 0.00 | 0.00 | 0.00 | 45 | 1008.3 |
| 20260509224003 | 72 | 246 | 4.0 | 11.0 | 0.00 | 0.00 | 0.00 | 45 | 1008.2 |
| 20260509223503 | 72 | 241 | 4.0 | 12.0 | 0.00 | 0.00 | 0.00 | 45 | 1008.2 |
| 20260509223006 | 73 | 238 | 6.0 | 12.0 | 0.00 | 0.00 | 0.00 | 44 | 1008.2 |
| 20260509222503 | 73 | 214 | 2.0 | 9.0 | 0.00 | 0.00 | 0.00 | 44 | 1008.2 |
| 20260509222004 | 73 | 220 | 5.0 | 12.0 | 0.00 | 0.00 | 0.00 | 44 | 1008.2 |
| 20260509221506 | 73 | 237 | 5.0 | 12.0 | 0.00 | 0.00 | 0.00 | 44 | 1008.2 |
| 20260509221005 | 73 | 257 | 5.0 | 12.0 | 0.00 | 0.00 | 0.00 | 43 | 1008.2 |
| 20260509220014 | 73 | 219 | 4.0 | 8.0 | 0.00 | 0.00 | 0.00 | 44 | 1008.1 |
| 20260509215007 | 72 | 230 | 1.0 | 12.0 | 0.00 | 0.00 | 0.00 | 44 | 1008.2 |
| 20260509214515 | 72 | 220 | 7.0 | 13.0 | 0.00 | 0.00 | 0.00 | 44 | 1008.3 |
| 20260509214010 | 73 | 226 | 4.0 | 13.0 | 0.00 | 0.00 | 0.00 | 44 | 1008.2 |
| 20260509213004 | 72 | 207 | 4.0 | 8.0 | 0.00 | 0.00 | 0.00 | 47 | 1007.9 |
| 20260509212502 | 71 | 122 | 2.0 | 7.0 | 0.00 | 0.00 | 0.00 | 48 | 1007.9 |
| 20260509212003 | 71 | 145 | 4.0 | 7.0 | 0.00 | 0.00 | 0.00 | 48 | 1007.9 |
| 20260509211507 | 71 | 141 | 4.0 | 8.0 | 0.00 | 0.00 | 0.00 | 50 | 1007.9 |
| 20260509210505 | 71 | 133 | 5.0 | 9.0 | 0.00 | 0.00 | 0.00 | 49 | 1008.0 |
| 20260509210009 | 71 | 130 | 4.0 | 9.0 | 0.00 | 0.00 | 0.00 | 50 | 1007.8 |
| 20260509205006 | 72 | 153 | 5.0 | 9.0 | 0.00 | 0.00 | 0.00 | 48 | 1007.9 |
| 20260509204514 | 72 | 213 | 3.0 | 8.0 | 0.00 | 0.00 | 0.00 | 48 | 1007.9 |
| 20260509204008 | 73 | 167 | 6.0 | 9.0 | 0.00 | 0.00 | 0.00 | 46 | 1007.8 |
| 20260509203507 | 73 | 212 | 3.0 | 14.0 | 0.00 | 0.00 | 0.00 | 44 | 1007.7 |
| 20260509203018 | 74 | 191 | 6.0 | 16.0 | 0.00 | 0.00 | 0.00 | 45 | 1007.7 |
| 20260509202009 | 74 | 236 | 2.0 | 8.0 | 0.00 | 0.00 | 0.00 | 44 | 1007.6 |
| 20260509201524 | 74 | 200 | 3.0 | 9.0 | 0.00 | 0.00 | 0.00 | 42 | 1007.6 |
| 20260509201003 | 73 | 294 | 4.0 | 12.0 | 0.00 | 0.00 | 0.00 | 44 | 1007.7 |
| 20260509200506 | 73 | 162 | 5.0 | 12.0 | 0.00 | 0.00 | 0.00 | 46 | 1007.7 |
| 20260509200006 | 73 | 153 | 3.0 | 12.0 | 0.00 | 0.00 | 0.00 | 46 | 1007.7 |
| 20260509194007 | 75 | 253 | 3.0 | 12.0 | 0.00 | 0.00 | 0.00 | 38 | 1007.9 |
| 20260509193016 | 74 | 210 | 5.0 | 13.0 | 0.00 | 0.00 | 0.00 | 45 | 1008.1 |
| 20260509192507 | 73 | 206 | 2.0 | 14.0 | 0.00 | 0.00 | 0.00 | 42 | 1008.1 |
| 20260509191521 | 73 | 155 | 10.0 | 14.0 | 0.00 | 0.00 | 0.00 | 44 | 1008.2 |
| 20260509191007 | 73 | 261 | 3.0 | 11.0 | 0.00 | 0.00 | 0.00 | 47 | 1008.3 |
| 20260509190025 | 72 | 207 | 4.0 | 10.0 | 0.00 | 0.00 | 0.00 | 49 | 1008.3 |
| 20260509185503 | 72 | 243 | 6.0 | 10.0 | 0.00 | 0.00 | 0.00 | 47 | 1008.4 |
| 20260509185005 | 72 | 208 | 4.0 | 12.0 | 0.00 | 0.00 | 0.00 | 48 | 1008.5 |
| 20260509184508 | 72 | 234 | 4.0 | 12.0 | 0.00 | 0.00 | 0.00 | 49 | 1008.6 |
| 20260509183016 | 71 | 115 | 5.0 | 12.0 | 0.00 | 0.00 | 0.00 | 50 | 1008.8 |
| 20260509181011 | 70 | 169 | 4.0 | 13.0 | 0.00 | 0.00 | 0.00 | 55 | 1009.0 |
| 20260509180024 | 69 | 142 | 9.0 | 12.0 | 0.00 | 0.00 | 0.00 | 50 | 1009.1 |
| 20260509174002 | 69 | 231 | 5.0 | 7.0 | 0.00 | 0.00 | 0.00 | 52 | 1009.6 |
| 20260509172504 | 68 | 231 | 5.0 | 9.0 | 0.00 | 0.00 | 0.00 | 50 | 1009.8 |
| 20260509170507 | 69 | 269 | 3.0 | 6.0 | 0.00 | 0.00 | 0.00 | 51 | 1009.9 |
| 20260509165507 | 69 | 283 | 2.0 | 9.0 | 0.00 | 0.00 | 0.00 | 47 | 1009.9 |
| 20260509164009 | 69 | 288 | 6.0 | 10.0 | 0.00 | 0.00 | 0.00 | 49 | 1010.0 |
| 20260509162503 | 69 | 256 | 5.0 | 10.0 | 0.00 | 0.00 | 0.00 | 55 | 1009.8 |
| 20260509162003 | 68 | 245 | 5.0 | 10.0 | 0.00 | 0.00 | 0.00 | 53 | 1009.9 |
| 20260509160507 | 68 | 276 | 3.0 | 10.0 | 0.00 | 0.00 | 0.00 | 51 | 1010.0 |
| 20260509160018 | 68 | 283 | 4.0 | 9.0 | 0.00 | 0.00 | 0.00 | 56 | 1009.9 |
| 20260509155509 | 68 | 287 | 1.0 | 9.0 | 0.00 | 0.00 | 0.00 | 55 | 1009.9 |
| 20260509154011 | 67 | 223 | 5.0 | 12.0 | 0.00 | 0.00 | 0.00 | 55 | 1010.1 |
| 20260509151003 | 67 | 168 | 5.0 | 10.0 | 0.00 | 0.00 | 0.00 | 55 | 1009.9 |
| 20260509150503 | 67 | 167 | 6.0 | 12.0 | 0.00 | 0.00 | 0.00 | 55 | 1010.0 |
| 20260509145504 | 67 | 257 | 7.0 | 14.0 | 0.00 | 0.00 | 0.00 | 54 | 1010.1 |
| 20260509145007 | 67 | 221 | 5.0 | 10.0 | 0.00 | 0.00 | 0.00 | 59 | 1009.9 |
| 20260509144519 | 66 | 212 | 2.0 | 10.0 | 0.00 | 0.00 | 0.00 | 59 | 1010.0 |
| 20260509144008 | 66 | 177 | 4.0 | 10.0 | 0.00 | 0.00 | 0.00 | 61 | 1010.1 |
| 20260509143509 | 65 | 262 | 2.0 | 10.0 | 0.00 | 0.00 | 0.00 | 59 | 1010.0 |
| 20260509142508 | 64 | 215 | 5.0 | 10.0 | 0.00 | 0.00 | 0.00 | 61 | 1010.1 |
| 20260509142009 | 64 | 233 | 5.0 | 14.0 | 0.00 | 0.00 | 0.00 | 61 | 1010.4 |
| 20260509135504 | 62 | 218 | 5.0 | 10.0 | 0.00 | 0.00 | 0.00 | 63 | 1010.9 |
| 20260509135006 | 62 | 195 | 5.0 | 12.0 | 0.00 | 0.00 | 0.00 | 63 | 1011.0 |
| 20260509134004 | 61 | 219 | 7.0 | 12.0 | 0.00 | 0.00 | 0.00 | 63 | 1011.2 |
| 20260509133507 | 61 | 245 | 6.0 | 12.0 | 0.00 | 0.00 | 0.00 | 66 | 1011.2 |
| 20260509133020 | 61 | 145 | 4.0 | 9.0 | 0.00 | 0.00 | 0.00 | 65 | 1011.2 |
| 20260509132513 | 60 | 214 | 2.0 | 6.0 | 0.00 | 0.00 | 0.00 | 66 | 1011.2 |
| 20260509132010 | 60 | 137 | 1.0 | 5.0 | 0.00 | 0.00 | 0.00 | 66 | 1011.1 |
| 20260509131525 | 60 | 246 | 2.0 | 5.0 | 0.00 | 0.00 | 0.00 | 67 | 1011.1 |
| 20260509131014 | 59 | 119 | 2.0 | 4.0 | 0.00 | 0.00 | 0.00 | 68 | 1011.1 |
| 20260509130512 | 59 | 130 | 1.0 | 4.0 | 0.00 | 0.00 | 0.00 | 68 | 1011.1 |
| 20260509130026 | 58 | 169 | 1.0 | 3.0 | 0.00 | 0.00 | 0.00 | 69 | 1011.1 |
| 20260509125513 | 58 | 121 | 1.0 | 3.0 | 0.00 | 0.00 | 0.00 | 72 | 1011.0 |
| 20260509125013 | 57 | 158 | 1.0 | 4.0 | 0.00 | 0.00 | 0.00 | 73 | 1011.0 |
| 20260509124534 | 57 | 123 | 2.0 | 4.0 | 0.00 | 0.00 | 0.00 | 74 | 1011.0 |
| 20260509124012 | 56 | 158 | 0.0 | 3.0 | 0.00 | 0.00 | 0.00 | 73 | 1011.0 |
| 20260509123507 | 56 | 129 | 1.0 | 3.0 | 0.00 | 0.00 | 0.00 | 74 | 1011.0 |
| 20260509122508 | 55 | 96 | 0.0 | 3.0 | 0.00 | 0.00 | 0.00 | 76 | 1011.1 |
| 20260509122007 | 54 | 117 | 0.0 | 2.0 | 0.00 | 0.00 | 0.00 | 77 | 1011.2 |
| 20260509121518 | 54 | 110 | 1.0 | 2.0 | 0.00 | 0.00 | 0.00 | 76 | 1011.1 |
| 20260509121010 | 53 | 129 | 0.0 | 2.0 | 0.00 | 0.00 | 0.00 | 76 | 1011.0 |
| 20260509120510 | 53 | 108 | 0.0 | 3.0 | 0.00 | 0.00 | 0.00 | 77 | 1011.0 |
| 20260509120022 | 53 | 110 | 0.0 | 3.0 | 0.00 | 0.00 | 0.00 | 77 | 1011.0 |
| 20260509115508 | 53 | 116 | 0.0 | 2.0 | 0.00 | 0.00 | 0.00 | 77 | 1011.0 |
| 20260509115017 | 52 | 96 | 1.0 | 3.0 | 0.00 | 0.00 | 0.00 | 77 | 1011.0 |
| 20260509114525 | 52 | 96 | 1.0 | 3.0 | 0.00 | 0.00 | 0.00 | 76 | 1011.1 |
| 20260509114011 | 52 | 131 | 1.0 | 3.0 | 0.00 | 0.00 | 0.00 | 77 | 1011.2 |
| 20260509113509 | 52 | 122 | 1.0 | 3.0 | 0.00 | 0.00 | 0.00 | 76 | 1011.2 |
| 20260509113026 | 51 | 109 | 1.0 | 3.0 | 0.00 | 0.00 | 0.00 | 77 | 1011.2 |
| 20260509112510 | 51 | 115 | 1.0 | 3.0 | 0.00 | 0.00 | 0.00 | 76 | 1011.1 |
| 20260509112006 | 51 | 78 | 1.0 | 3.0 | 0.00 | 0.00 | 0.00 | 76 | 1011.1 |
| 20260509111534 | 51 | 91 | 1.0 | 4.0 | 0.00 | 0.00 | 0.00 | 77 | 1011.0 |
| 20260509111010 | 51 | 95 | 2.0 | 4.0 | 0.00 | 0.00 | 0.00 | 76 | 1011.0 |
| 20260509110506 | 51 | 123 | 0.0 | 4.0 | 0.00 | 0.00 | 0.00 | 76 | 1011.1 |
| 20260509110022 | 51 | 111 | 2.0 | 4.0 | 0.00 | 0.00 | 0.00 | 76 | 1011.1 |
| 20260509105503 | 51 | 85 | 1.0 | 4.0 | 0.00 | 0.00 | 0.00 | 76 | 1011.1 |
| 20260509105005 | 51 | 95 | 2.0 | 4.0 | 0.00 | 0.00 | 0.00 | 75 | 1011.1 |
| 20260509104523 | 50 | 101 | 2.0 | 4.0 | 0.00 | 0.00 | 0.00 | 76 | 1011.1 |
| 20260509104002 | 50 | 134 | 2.0 | 4.0 | 0.00 | 0.00 | 0.00 | 77 | 1011.2 |
| 20260509103502 | 50 | 89 | 1.0 | 5.0 | 0.00 | 0.00 | 0.00 | 76 | 1011.1 |
| 20260509103014 | 50 | 82 | 2.0 | 5.0 | 0.00 | 0.00 | 0.00 | 77 | 1011.2 |
| 20260509102508 | 50 | 126 | 3.0 | 5.0 | 0.00 | 0.00 | 0.00 | 77 | 1011.2 |
| 20260509102007 | 50 | 131 | 3.0 | 4.0 | 0.00 | 0.00 | 0.00 | 77 | 1011.2 |
| 20260509101523 | 50 | 128 | 3.0 | 5.0 | 0.00 | 0.00 | 0.00 | 79 | 1011.2 |
| 20260509101007 | 50 | 123 | 3.0 | 5.0 | 0.00 | 0.00 | 0.00 | 78 | 1011.2 |
| 20260509100506 | 50 | 114 | 2.0 | 5.0 | 0.00 | 0.00 | 0.00 | 76 | 1011.3 |
| 20260509100022 | 50 | 122 | 2.0 | 5.0 | 0.00 | 0.00 | 0.00 | 76 | 1011.2 |
| 20260509095506 | 50 | 103 | 2.0 | 5.0 | 0.00 | 0.00 | 0.00 | 75 | 1011.2 |
| 20260509095009 | 50 | 103 | 3.0 | 5.0 | 0.00 | 0.00 | 0.00 | 76 | 1011.2 |
| 20260509094504 | 50 | 73 | 3.0 | 5.0 | 0.00 | 0.00 | 0.00 | 75 | 1011.2 |
| 20260509094004 | 50 | 96 | 3.0 | 5.0 | 0.00 | 0.00 | 0.00 | 76 | 1011.2 |
| 20260509093503 | 50 | 113 | 3.0 | 5.0 | 0.00 | 0.00 | 0.00 | 76 | 1011.2 |
| 20260509093012 | 50 | 129 | 3.0 | 5.0 | 0.00 | 0.01 | 0.00 | 77 | 1011.3 |
| 20260509092503 | 50 | 110 | 3.0 | 4.0 | 0.00 | 0.01 | 0.00 | 77 | 1011.3 |
| 20260509092005 | 50 | 78 | 2.0 | 5.0 | 0.00 | 0.01 | 0.00 | 76 | 1011.5 |
| 20260509091514 | 50 | 123 | 1.0 | 5.0 | 0.00 | 0.01 | 0.00 | 76 | 1011.5 |
| 20260509091003 | 50 | 123 | 2.0 | 4.0 | 0.00 | 0.01 | 0.00 | 75 | 1011.3 |
| 20260509090507 | 51 | 115 | 1.0 | 4.0 | 0.00 | 0.01 | 0.00 | 75 | 1011.3 |
| 20260509090018 | 51 | 102 | 2.0 | 4.0 | 0.00 | 0.01 | 0.00 | 74 | 1011.4 |
| 20260509085506 | 50 | 100 | 2.0 | 4.0 | 0.00 | 0.01 | 0.00 | 75 | 1011.4 |
| 20260509085006 | 50 | 86 | 2.0 | 4.0 | 0.00 | 0.01 | 0.00 | 76 | 1011.4 |
| 20260509084519 | 50 | 119 | 2.0 | 3.0 | 0.00 | 0.01 | 0.00 | 76 | 1011.5 |
| 20260509084007 | 50 | 135 | 2.0 | 3.0 | 0.00 | 0.01 | 0.00 | 77 | 1011.5 |
| 20260509083509 | 50 | 122 | 1.0 | 4.0 | 0.00 | 0.01 | 0.00 | 75 | 1011.5 |
| 20260509083006 | 50 | 119 | 1.0 | 4.0 | 0.00 | 0.01 | 0.00 | 75 | 1011.5 |
| 20260509082503 | 50 | 127 | 2.0 | 8.0 | 0.00 | 0.01 | 0.00 | 75 | 1011.5 |
| 20260509082004 | 50 | 87 | 2.0 | 8.0 | 0.00 | 0.01 | 0.00 | 74 | 1011.6 |
| 20260509081508 | 50 | 98 | 2.0 | 4.0 | 0.00 | 0.01 | 0.00 | 75 | 1011.6 |
| 20260509081004 | 50 | 154 | 1.0 | 5.0 | 0.00 | 0.01 | 0.00 | 75 | 1011.6 |
| 20260509080504 | 50 | 91 | 3.0 | 6.0 | 0.00 | 0.01 | 0.00 | 76 | 1011.6 |
| 20260509080014 | 49 | 104 | 3.0 | 6.0 | 0.00 | 0.01 | 0.00 | 76 | 1011.6 |
| 20260509075503 | 49 | 96 | 3.0 | 4.0 | 0.00 | 0.01 | 0.00 | 77 | 1011.6 |
| 20260509075007 | 49 | 82 | 2.0 | 4.0 | 0.00 | 0.01 | 0.00 | 80 | 1011.8 |
| 20260509074516 | 49 | 143 | 2.0 | 4.0 | 0.00 | 0.01 | 0.00 | 79 | 1011.8 |
| 20260509074009 | 49 | 108 | 2.0 | 4.0 | 0.00 | 0.01 | 0.00 | 79 | 1011.8 |
| 20260509073506 | 49 | 128 | 1.0 | 2.0 | 0.00 | 0.01 | 0.00 | 79 | 1011.9 |
| 20260509073021 | 49 | 119 | 1.0 | 2.0 | 0.00 | 0.01 | 0.00 | 80 | 1012.0 |
| 20260509072507 | 49 | 119 | 1.0 | 3.0 | 0.00 | 0.01 | 0.00 | 81 | 1012.1 |
| 20260509072011 | 49 | 122 | 0.0 | 3.0 | 0.00 | 0.01 | 0.00 | 81 | 1012.0 |
| 20260509071522 | 49 | 132 | 1.0 | 3.0 | 0.00 | 0.01 | 0.00 | 80 | 1012.1 |
| 20260509071003 | 49 | 123 | 1.0 | 3.0 | 0.00 | 0.01 | 0.00 | 80 | 1012.1 |
| 20260509070504 | 49 | 120 | 1.0 | 4.0 | 0.00 | 0.01 | 0.00 | 81 | 1012.1 |
| 20260509070011 | 48 | 134 | 1.0 | 4.0 | 0.00 | 0.01 | 0.00 | 81 | 1012.1 |
| 20260509065508 | 49 | 136 | 2.0 | 3.0 | 0.00 | 0.01 | 0.00 | 80 | 1012.1 |
| 20260509065007 | 49 | 124 | 2.0 | 3.0 | 0.00 | 0.01 | 0.00 | 79 | 1012.1 |
| 20260509064525 | 49 | 115 | 2.0 | 5.0 | 0.00 | 0.01 | 0.00 | 77 | 1012.2 |
| 20260509064008 | 49 | 120 | 2.0 | 5.0 | 0.00 | 0.01 | 0.00 | 76 | 1012.2 |
| 20260509063509 | 49 | 100 | 2.0 | 4.0 | 0.00 | 0.01 | 0.00 | 76 | 1012.2 |
| 20260509063017 | 49 | 103 | 1.0 | 4.0 | 0.00 | 0.01 | 0.00 | 77 | 1012.3 |
| 20260509062508 | 49 | 98 | 2.0 | 4.0 | 0.00 | 0.01 | 0.00 | 77 | 1012.3 |
| 20260509062010 | 48 | 84 | 2.0 | 5.0 | 0.00 | 0.01 | 0.00 | 77 | 1012.4 |
| 20260509061535 | 48 | 96 | 2.0 | 5.0 | 0.00 | 0.01 | 0.00 | 78 | 1012.4 |
| 20260509061009 | 48 | 75 | 2.0 | 5.0 | 0.00 | 0.01 | 0.00 | 79 | 1012.4 |
| 20260509060510 | 48 | 104 | 2.0 | 5.0 | 0.00 | 0.01 | 0.00 | 79 | 1012.4 |
| 20260509060027 | 47 | 110 | 3.0 | 5.0 | 0.00 | 0.01 | 0.00 | 79 | 1012.5 |
| 20260509055504 | 47 | 128 | 2.0 | 4.0 | 0.00 | 0.01 | 0.00 | 79 | 1012.6 |
| 20260509054510 | 47 | 79 | 3.0 | 6.0 | 0.00 | 0.01 | 0.00 | 79 | 1012.7 |
| 20260509054005 | 47 | 94 | 3.0 | 6.0 | 0.00 | 0.01 | 0.00 | 79 | 1012.7 |
| 20260509053507 | 47 | 112 | 2.0 | 4.0 | 0.00 | 0.01 | 0.00 | 79 | 1012.8 |
| 20260509053028 | 47 | 95 | 2.0 | 4.0 | 0.00 | 0.01 | 0.00 | 79 | 1012.7 |
| 20260509052504 | 47 | 107 | 2.0 | 4.0 | 0.00 | 0.01 | 0.00 | 79 | 1012.8 |
| 20260509052007 | 47 | 92 | 1.0 | 3.0 | 0.00 | 0.01 | 0.00 | 79 | 1012.8 |
| 20260509051521 | 47 | 72 | 0.0 | 3.0 | 0.00 | 0.01 | 0.00 | 80 | 1012.8 |
| 20260509051008 | 47 | 70 | 1.0 | 3.0 | 0.00 | 0.01 | 0.00 | 80 | 1012.8 |
| 20260509050509 | 47 | 81 | 1.0 | 5.0 | 0.00 | 0.01 | 0.00 | 79 | 1012.8 |
| 20260509050025 | 47 | 135 | 0.0 | 5.0 | 0.00 | 0.01 | 0.00 | 79 | 1012.7 |
| 20260509045509 | 47 | 105 | 1.0 | 4.0 | 0.00 | 0.01 | 0.00 | 79 | 1012.7 |
| 20260509045009 | 47 | 83 | 1.0 | 4.0 | 0.00 | 0.01 | 0.00 | 79 | 1012.7 |
| 20260509044525 | 47 | 93 | 0.0 | 2.0 | 0.00 | 0.01 | 0.00 | 80 | 1012.7 |
| 20260509044007 | 47 | 79 | 0.0 | 2.0 | 0.00 | 0.01 | 0.00 | 82 | 1012.7 |
| 20260509043508 | 46 | 90 | 0.0 | 1.0 | 0.00 | 0.01 | 0.00 | 82 | 1012.7 |
| 20260509043010 | 47 | 107 | 0.0 | 1.0 | 0.00 | 0.01 | 0.00 | 80 | 1012.7 |
| 20260509042506 | 47 | 105 | 0.0 | 1.0 | 0.00 | 0.01 | 0.00 | 80 | 1012.5 |
| 20260509041516 | 48 | 110 | 0.0 | 2.0 | 0.00 | 0.01 | 0.00 | 78 | 1012.5 |
| 20260509041005 | 48 | 104 | 0.0 | 3.0 | 0.00 | 0.01 | 0.00 | 77 | 1012.5 |
| 20260509040506 | 48 | 112 | 1.0 | 3.0 | 0.00 | 0.01 | 0.00 | 77 | 1012.5 |
| 20260509040020 | 48 | 99 | 1.0 | 2.0 | 0.00 | 0.01 | 0.00 | 77 | 1012.7 |
| 20260509035509 | 48 | 116 | 0.0 | 3.0 | 0.00 | 0.01 | 0.01 | 77 | 1012.7 |
| 20260509035010 | 49 | 95 | 2.0 | 3.0 | 0.00 | 0.01 | 0.01 | 77 | 1012.7 |
| 20260509034533 | 49 | 90 | 0.0 | 2.0 | 0.00 | 0.01 | 0.01 | 76 | 1012.7 |
| 20260509034008 | 49 | 98 | 0.0 | 2.0 | 0.00 | 0.01 | 0.01 | 76 | 1012.7 |
| 20260509033512 | 49 | 97 | 1.0 | 3.0 | 0.00 | 0.01 | 0.01 | 75 | 1012.7 |
| 20260509033026 | 49 | 132 | 0.0 | 3.0 | 0.00 | 0.01 | 0.01 | 75 | 1012.7 |
| 20260509032515 | 50 | 101 | 1.0 | 3.0 | 0.00 | 0.01 | 0.01 | 75 | 1012.7 |
| 20260509032016 | 50 | 92 | 1.0 | 3.0 | 0.00 | 0.01 | 0.01 | 74 | 1012.8 |
| 20260509031511 | 50 | 105 | 2.0 | 3.0 | 0.00 | 0.01 | 0.01 | 74 | 1012.7 |
| 20260509030509 | 50 | 88 | 2.0 | 3.0 | 0.00 | 0.01 | 0.01 | 73 | 1012.8 |
| 20260509030017 | 51 | 82 | 2.0 | 3.0 | 0.00 | 0.01 | 0.01 | 73 | 1012.9 |
| 20260509025507 | 51 | 96 | 1.0 | 3.0 | 0.00 | 0.01 | 0.01 | 73 | 1012.9 |
| 20260509024525 | 51 | 108 | 1.0 | 2.0 | 0.00 | 0.01 | 0.01 | 73 | 1012.8 |
| 20260509023509 | 51 | 86 | 0.0 | 2.0 | 0.00 | 0.01 | 0.01 | 72 | 1013.0 |
| 20260509023023 | 52 | 107 | 0.0 | 2.0 | 0.00 | 0.01 | 0.01 | 72 | 1013.1 |
| 20260509022515 | 51 | 85 | 0.0 | 2.0 | 0.00 | 0.01 | 0.01 | 72 | 1013.0 |
| 20260509022009 | 52 | 93 | 0.0 | 1.0 | 0.00 | 0.01 | 0.01 | 73 | 1013.0 |
| 20260509021525 | 52 | 94 | 0.0 | 1.0 | 0.00 | 0.01 | 0.01 | 69 | 1012.9 |
| 20260509021009 | 52 | 98 | 0.0 | 1.0 | 0.00 | 0.01 | 0.01 | 69 | 1012.8 |
| 20260509020514 | 52 | 104 | 0.0 | 2.0 | 0.00 | 0.01 | 0.01 | 69 | 1012.7 |
| 20260509020016 | 53 | 89 | 1.0 | 2.0 | 0.00 | 0.01 | 0.01 | 69 | 1012.5 |
| 20260509014520 | 54 | 135 | 1.0 | 3.0 | 0.00 | 0.01 | 0.01 | 67 | 1012.3 |
| 20260509013506 | 54 | 121 | 1.0 | 3.0 | 0.00 | 0.01 | 0.01 | 67 | 1012.3 |
| 20260509012008 | 58 | 120 | 0.0 | 3.0 | 0.00 | 0.01 | 0.01 | 58 | 1012.3 |
| 20260509011523 | 58 | 97 | 1.0 | 3.0 | 0.00 | 0.01 | 0.01 | 54 | 1012.2 |
| 20260509011010 | 59 | 96 | 2.0 | 3.0 | 0.00 | 0.01 | 0.01 | 51 | 1012.3 |
| 20260509010511 | 60 | 97 | 0.0 | 4.0 | 0.00 | 0.01 | 0.01 | 49 | 1012.2 |